Time,TemperatureF,DewpointF,PressureIn,WindDirection,WindDirectionDegrees,WindSpeedMPH,WindSpeedGustMPH,Humidity,HourlyPrecipIn,Conditions,Clouds,dailyrainin,SoftwareType,DateUTC
2013-01-16 00:03:00,31.1,30.0,30.14,NNE,30,1.0,2.0,95,0.00,,,0.00,weatherlink.com 1.10,2013-01-16 06:03:00,
2013-01-16 00:18:00,31.0,30.0,30.13,North,4,1.0,2.0,95,0.00,,,0.00,weatherlink.com 1.10,2013-01-16 06:18:00,
2013-01-16 00:33:00,30.8,30.0,30.13,NNE,18,1.0,2.0,95,0.00,,,0.00,weatherlink.com 1.10,2013-01-16 06:33:00,
2013-01-16 00:48:00,30.5,29.0,30.12,WNW,286,0.0,4.0,95,0.00,,,0.00,weatherlink.com 1.10,2013-01-16 06:48:00,
2013-01-16 01:03:00,30.3,29.0,30.12,NNE,27,1.0,4.0,95,0.00,,,0.00,weatherlink.com 1.10,2013-01-16 07:03:00,
2013-01-16 01:18:00,30.2,29.0,30.13,North,349,2.0,3.0,95,0.00,,,0.00,weatherlink.com 1.10,2013-01-16 07:18:00,
2013-01-16 01:33:00,30.0,29.0,30.12,North,11,4.0,7.0,95,0.00,,,0.00,weatherlink.com 1.10,2013-01-16 07:33:00,
2013-01-16 01:48:00,29.8,28.0,30.12,North,10,3.0,6.0,94,0.00,,,0.00,weatherlink.com 1.10,2013-01-16 07:48:00,
2013-01-16 02:03:00,29.8,28.0,30.13,NE,40,2.0,4.0,94,0.00,,,0.00,weatherlink.com 1.10,2013-01-16 08:03:00,
2013-01-16 02:18:00,29.7,28.0,30.12,WNW,294,0.0,4.0,94,0.00,,,0.00,weatherlink.com 1.10,2013-01-16 08:18:00,
2013-01-16 02:33:00,29.6,28.0,30.14,NNE,23,2.0,3.0,94,0.00,,,0.00,weatherlink.com 1.10,2013-01-16 08:33:00,
2013-01-16 02:48:00,29.6,28.0,30.11,NNE,16,0.0,3.0,94,0.00,,,0.00,weatherlink.com 1.10,2013-01-16 08:48:00,
2013-01-16 03:03:00,29.5,28.0,30.11,NNE,16,2.0,-999.0,94,-99.99,,,0.00,weatherlink.com 1.10,2013-01-16 09:03:00,
2013-01-16 03:18:00,29.5,28.0,30.09,West,276,0.0,3.0,94,0.00,,,0.00,weatherlink.com 1.10,2013-01-16 09:18:00,
2013-01-16 03:33:00,29.5,28.0,30.08,NNE,20,2.0,3.0,94,0.00,,,0.00,weatherlink.com 1.10,2013-01-16 09:33:00,
2013-01-16 03:48:00,29.5,28.0,30.08,NNW,333,2.0,4.0,94,0.00,,,0.00,weatherlink.com 1.10,2013-01-16 09:48:00,
2013-01-16 04:03:00,29.6,28.0,30.11,North,9,1.0,3.0,95,0.00,,,0.00,weatherlink.com 1.10,2013-01-16 10:03:00,
2013-01-16 04:18:00,29.8,29.0,30.13,West,266,1.0,1.0,95,0.00,,,0.00,weatherlink.com 1.10,2013-01-16 10:18:00,
2013-01-16 04:33:00,29.8,29.0,30.12,SW,233,0.0,3.0,95,0.00,,,0.00,weatherlink.com 1.10,2013-01-16 10:33:00,
2013-01-16 04:48:00,29.9,29.0,30.14,WSW,257,0.0,1.0,95,0.00,,,0.00,weatherlink.com 1.10,2013-01-16 10:48:00,
2013-01-16 05:03:00,29.9,29.0,30.13,NNE,19,1.0,1.0,95,0.00,,,0.00,weatherlink.com 1.10,2013-01-16 11:03:00,
2013-01-16 05:18:00,29.8,29.0,30.13,East,88,0.0,4.0,95,0.00,,,0.00,weatherlink.com 1.10,2013-01-16 11:18:00,
2013-01-16 05:33:00,29.8,29.0,30.12,North,6,3.0,4.0,95,0.00,,,0.00,weatherlink.com 1.10,2013-01-16 11:33:00,
2013-01-16 05:48:00,29.8,29.0,30.14,NNE,12,0.0,4.0,95,0.00,,,0.00,weatherlink.com 1.10,2013-01-16 11:48:00,
2013-01-16 06:04:00,29.8,28.0,30.15,North,360,2.0,4.0,94,0.00,,,0.00,weatherlink.com 1.10,2013-01-16 12:04:00,
2013-01-16 06:19:00,29.8,28.0,30.16,WSW,250,0.0,3.0,94,0.00,,,0.00,weatherlink.com 1.10,2013-01-16 12:19:00,
2013-01-16 06:34:00,29.7,28.0,30.18,NE,44,0.0,2.0,94,0.00,,,0.00,weatherlink.com 1.10,2013-01-16 12:34:00,
2013-01-16 06:49:00,29.7,28.0,30.18,NNE,12,1.0,3.0,94,0.00,,,0.00,weatherlink.com 1.10,2013-01-16 12:49:00,
2013-01-16 07:04:00,29.7,28.0,30.18,WNW,296,0.0,4.0,94,0.00,,,0.00,weatherlink.com 1.10,2013-01-16 13:04:00,
2013-01-16 07:19:00,29.7,28.0,30.17,NE,37,1.0,3.0,93,0.00,,,0.00,weatherlink.com 1.10,2013-01-16 13:19:00,
2013-01-16 07:34:00,29.7,28.0,30.16,NNE,13,3.0,4.0,93,0.00,,,0.00,weatherlink.com 1.10,2013-01-16 13:34:00,
2013-01-16 07:49:00,29.6,28.0,30.13,NE,36,0.0,4.0,93,0.00,,,0.00,weatherlink.com 1.10,2013-01-16 13:49:00,
2013-01-16 08:04:00,29.7,28.0,30.17,West,267,0.0,3.0,93,0.00,,,0.00,weatherlink.com 1.10,2013-01-16 14:04:00,
2013-01-16 08:19:00,29.8,28.0,30.19,North,351,1.0,3.0,92,0.00,,,0.00,weatherlink.com 1.10,2013-01-16 14:19:00,
2013-01-16 08:34:00,29.9,28.0,30.21,NNE,27,0.0,2.0,92,0.00,,,0.00,weatherlink.com 1.10,2013-01-16 14:34:00,
2013-01-16 08:49:00,30.1,28.0,30.20,North,5,1.0,4.0,91,0.00,,,0.00,weatherlink.com 1.10,2013-01-16 14:49:00,
2013-01-16 09:04:00,30.1,28.0,30.18,North,353,2.0,5.0,91,0.00,,,0.00,weatherlink.com 1.10,2013-01-16 15:04:00,
2013-01-16 09:19:00,30.4,28.0,30.19,NNE,23,1.0,4.0,91,0.00,,,0.00,weatherlink.com 1.10,2013-01-16 15:19:00,
2013-01-16 09:34:00,30.7,29.0,30.19,NNE,20,1.0,3.0,92,0.00,,,0.00,weatherlink.com 1.10,2013-01-16 15:34:00,
2013-01-16 09:49:00,30.7,28.0,30.21,North,11,3.0,4.0,91,0.00,,,0.00,weatherlink.com 1.10,2013-01-16 15:49:00,
2013-01-16 10:04:00,31.0,29.0,30.19,North,8,0.0,3.0,92,0.00,,,0.00,weatherlink.com 1.10,2013-01-16 16:04:00,
2013-01-16 10:19:00,31.0,29.0,30.18,NNE,27,0.0,4.0,91,0.00,,,0.00,weatherlink.com 1.10,2013-01-16 16:19:00,
2013-01-16 10:34:00,31.0,29.0,30.15,NNE,32,1.0,2.0,91,0.00,,,0.00,weatherlink.com 1.10,2013-01-16 16:34:00,
2013-01-16 10:49:00,31.2,29.0,30.15,ESE,104,0.0,3.0,92,0.00,,,0.00,weatherlink.com 1.10,2013-01-16 16:49:00,
2013-01-16 11:04:00,31.2,29.0,30.18,North,5,0.0,2.0,91,0.00,,,0.00,weatherlink.com 1.10,2013-01-16 17:04:00,
2013-01-16 11:19:00,31.4,29.0,30.16,NNE,20,3.0,3.0,91,0.00,,,0.00,weatherlink.com 1.10,2013-01-16 17:19:00,
2013-01-16 11:34:00,31.3,29.0,30.16,NNE,16,0.0,2.0,91,0.00,,,0.00,weatherlink.com 1.10,2013-01-16 17:34:00,
2013-01-16 11:49:00,31.5,30.0,30.16,NNE,27,0.0,2.0,92,0.00,,,0.00,weatherlink.com 1.10,2013-01-16 17:49:00,
2013-01-16 12:04:00,31.6,29.0,30.16,NNE,18,0.0,2.0,91,0.00,,,0.00,weatherlink.com 1.10,2013-01-16 18:04:00,
2013-01-16 12:19:00,32.0,30.0,30.16,North,352,1.0,2.0,91,0.00,,,0.00,weatherlink.com 1.10,2013-01-16 18:19:00,
2013-01-16 12:34:00,32.0,30.0,30.14,North,354,1.0,2.0,91,0.00,,,0.00,weatherlink.com 1.10,2013-01-16 18:34:00,
2013-01-16 12:49:00,32.2,30.0,30.15,NNE,16,0.0,2.0,91,0.00,,,0.00,weatherlink.com 1.10,2013-01-16 18:49:00,
2013-01-16 13:04:00,32.2,30.0,30.14,NE,41,0.0,2.0,92,0.00,,,0.00,weatherlink.com 1.10,2013-01-16 19:04:00,
2013-01-16 13:19:00,32.3,30.0,30.15,WSW,248,0.0,2.0,91,0.00,,,0.00,weatherlink.com 1.10,2013-01-16 19:19:00,
2013-01-16 13:34:00,32.4,30.0,30.14,NNE,20,1.0,1.0,92,0.00,,,0.00,weatherlink.com 1.10,2013-01-16 19:34:00,
2013-01-16 13:49:00,32.3,30.0,30.15,WSW,251,0.0,2.0,92,0.00,,,0.00,weatherlink.com 1.10,2013-01-16 19:49:00,
2013-01-16 14:04:00,32.3,30.0,30.14,NNE,12,1.0,3.0,92,0.00,,,0.00,weatherlink.com 1.10,2013-01-16 20:04:00,
2013-01-16 14:19:00,32.3,30.0,30.13,North,4,1.0,2.0,91,0.00,,,0.00,weatherlink.com 1.10,2013-01-16 20:19:00,
2013-01-16 14:34:00,32.4,30.0,30.12,NE,40,1.0,2.0,91,0.00,,,0.00,weatherlink.com 1.10,2013-01-16 20:34:00,
2013-01-16 14:49:00,32.5,31.0,30.14,West,259,0.0,1.0,92,0.00,,,0.00,weatherlink.com 1.10,2013-01-16 20:49:00,
2013-01-16 15:04:00,32.5,31.0,30.13,NNE,22,0.0,2.0,92,0.00,,,0.00,weatherlink.com 1.10,2013-01-16 21:04:00,
2013-01-16 15:19:00,32.4,30.0,30.14,WSW,253,0.0,1.0,92,0.00,,,0.00,weatherlink.com 1.10,2013-01-16 21:19:00,
2013-01-16 15:49:00,32.5,31.0,30.14,West,266,0.0,1.0,92,0.00,,,0.00,weatherlink.com 1.10,2013-01-16 21:49:00,
2013-01-16 16:04:00,32.5,31.0,30.14,NNE,12,0.0,2.0,93,0.00,,,0.00,weatherlink.com 1.10,2013-01-16 22:04:00,
2013-01-16 16:19:00,32.5,31.0,30.14,NNE,12,0.0,3.0,93,0.00,,,0.00,weatherlink.com 1.10,2013-01-16 22:19:00,
2013-01-16 16:34:00,32.5,31.0,30.15,SW,219,0.0,2.0,92,0.00,,,0.00,weatherlink.com 1.10,2013-01-16 22:34:00,
2013-01-16 16:49:00,32.5,31.0,30.14,NNE,32,1.0,1.0,93,0.00,,,0.00,weatherlink.com 1.10,2013-01-16 22:49:00,
2013-01-16 17:04:00,32.4,31.0,30.15,North,11,0.0,3.0,93,0.00,,,0.00,weatherlink.com 1.10,2013-01-16 23:04:00,
2013-01-16 17:19:00,32.2,30.0,30.15,NNW,344,1.0,2.0,93,0.00,,,0.00,weatherlink.com 1.10,2013-01-16 23:19:00,
2013-01-16 17:34:00,32.1,30.0,30.14,NE,40,0.0,2.0,93,0.00,,,0.00,weatherlink.com 1.10,2013-01-16 23:34:00,
2013-01-16 17:49:00,32.0,30.0,30.14,North,6,0.0,1.0,93,0.00,,,0.00,weatherlink.com 1.10,2013-01-16 23:49:00,
2013-01-16 18:04:00,32.0,31.0,30.16,NNE,12,0.0,1.0,94,0.00,,,0.00,weatherlink.com 1.10,2013-01-17 00:04:00,
2013-01-16 18:19:00,31.8,30.0,30.16,East,81,0.0,1.0,93,0.00,,,0.00,weatherlink.com 1.10,2013-01-17 00:19:00,
2013-01-16 18:34:00,31.7,30.0,30.16,North,360,0.0,1.0,94,0.00,,,0.00,weatherlink.com 1.10,2013-01-17 00:34:00,
2013-01-16 18:49:00,31.7,30.0,30.17,NNE,13,0.0,1.0,94,0.00,,,0.00,weatherlink.com 1.10,2013-01-17 00:49:00,
2013-01-16 19:04:00,31.6,30.0,30.16,NNE,15,0.0,1.0,94,0.00,,,0.00,weatherlink.com 1.10,2013-01-17 01:04:00,
2013-01-16 19:19:00,31.6,30.0,30.16,NNE,20,1.0,1.0,94,0.00,,,0.00,weatherlink.com 1.10,2013-01-17 01:19:00,
2013-01-16 19:34:00,31.6,30.0,30.16,NNE,15,0.0,2.0,94,0.00,,,0.00,weatherlink.com 1.10,2013-01-17 01:34:00,
2013-01-16 19:49:00,31.8,30.0,30.18,West,266,0.0,1.0,94,0.00,,,0.00,weatherlink.com 1.10,2013-01-17 01:49:00,
2013-01-16 20:04:00,31.8,30.0,30.18,WNW,291,0.0,1.0,94,0.00,,,0.00,weatherlink.com 1.10,2013-01-17 02:04:00,
2013-01-16 20:19:00,31.9,30.0,30.18,North,354,0.0,1.0,94,0.00,,,0.00,weatherlink.com 1.10,2013-01-17 02:19:00,
2013-01-16 20:34:00,32.0,31.0,30.18,North,354,0.0,0.0,94,0.00,,,0.00,weatherlink.com 1.10,2013-01-17 02:34:00,
2013-01-16 20:49:00,32.1,31.0,30.18,NNE,26,0.0,0.0,94,0.00,,,0.00,weatherlink.com 1.10,2013-01-17 02:49:00,
2013-01-16 21:04:00,32.1,31.0,30.19,NNE,18,0.0,1.0,94,0.00,,,0.00,weatherlink.com 1.10,2013-01-17 03:04:00,
2013-01-16 21:19:00,32.1,31.0,30.18,WNW,299,0.0,1.0,94,0.00,,,0.00,weatherlink.com 1.10,2013-01-17 03:19:00,
2013-01-16 21:34:00,32.0,31.0,30.17,NNE,24,0.0,0.0,94,0.00,,,0.00,weatherlink.com 1.10,2013-01-17 03:34:00,
2013-01-16 21:49:00,32.0,31.0,30.17,NNE,24,0.0,0.0,94,0.00,,,0.00,weatherlink.com 1.10,2013-01-17 03:49:00,
2013-01-16 22:04:00,32.1,31.0,30.18,North,5,0.0,1.0,94,0.00,,,0.00,weatherlink.com 1.10,2013-01-17 04:04:00,
2013-01-16 22:19:00,32.1,31.0,30.18,NNE,26,0.0,1.0,94,0.00,,,0.00,weatherlink.com 1.10,2013-01-17 04:19:00,
2013-01-16 22:34:00,32.1,31.0,30.16,NNE,26,0.0,0.0,94,0.00,,,0.00,weatherlink.com 1.10,2013-01-17 04:34:00,
2013-01-16 22:49:00,32.1,31.0,30.17,WNW,292,0.0,1.0,94,0.00,,,0.00,weatherlink.com 1.10,2013-01-17 04:49:00,
2013-01-16 23:04:00,32.2,31.0,30.16,NNE,27,0.0,1.0,94,0.00,,,0.00,weatherlink.com 1.10,2013-01-17 05:04:00,
2013-01-16 23:19:00,32.2,31.0,30.16,NNE,30,0.0,1.0,94,0.00,,,0.00,weatherlink.com 1.10,2013-01-17 05:19:00,
2013-01-16 23:34:00,32.2,31.0,30.16,WSW,243,1.0,2.0,94,0.00,,,0.00,weatherlink.com 1.10,2013-01-17 05:34:00,
2013-01-16 23:49:00,32.2,31.0,30.16,West,262,0.0,1.0,94,0.00,,,0.00,weatherlink.com 1.10,2013-01-17 05:49:00,